This demonstration page uses our WeatherBlox Daily Observations layout. Learn more.

38.88101, -77.10428

Hourly Observations for January 12, 2016

Temp ( °F °C ) Dew Point ( °F °C ) Humidity (%) Winds ( mph kmh ) Pressure ( in mb ) Visibility ( mi km ) Precip ( " mm )
12:52 am 00:52 Mostly Cloudy 30 -1 12 -11 47 47 S 5 7 30.12 1020 10 16.09344 0 0
1:52 am 01:52 Mostly Cloudy 30 -1 12 -11 47 47 SE 3 6 30.09 1019 10 16.09344 0 0
2:52 am 02:52 Mostly Cloudy 30 -1 12 -11 47 47 SSE 3 6 30.09 1019 10 16.09344 0 0
3:52 am 03:52 Cloudy 30 -1 12 -11 47 47 SSE 5 7 30.06 1018 10 16.09344 0 0
4:52 am 04:52 Cloudy 30 -1 16 -9 55 55 S 8 13 30.03 1017 10 16.09344 0 0
5:52 am 05:52 Mostly Cloudy 32 0 18 -8 55 55 S 12 19 30 1016 10 16.09344 0 0
6:52 am 06:52 Mostly Cloudy 32 0 19 -7 60 60 S 14 22 29.97 1015 10 16.09344 0 0
7:52 am 07:52 Mostly Cloudy 34 1 21 -6 60 60 S 12 19 29.97 1015 10 16.09344 0 0
8:52 am 08:52 Mostly Cloudy 36 2 18 -8 48 48 S 14 22 29.94 1014 10 16.09344 0 0
9:52 am 09:52 Cloudy 37 3 18 -8 45 45 SSW 14 22 29.91 1013 10 16.09344 0 0
10:52 am 10:52 Cloudy 39 4 19 -7 45 45 SSW 15 24 29.88 1012 10 16.09344 0 0
11:52 am 11:52 Cloudy 41 5 19 -7 42 42 SSW 16 26 29.83 1010 10 16.09344 0 0
12:52 pm 12:52 Cloudy 45 7 19 -7 37 37 SSW 18 30 29.77 1008 10 16.09344 0 0
1:52 pm 13:52 Cloudy 45 7 19 -7 37 37 SSW 15 24 29.71 1006 10 16.09344 0 0
2:52 pm 14:52 Partly Cloudy 46 8 19 -7 34 34 SW 18 30 29.71 1006 10 16.09344 0 0
3:52 pm 15:52 Partly Cloudy 46 8 18 -8 32 32 WSW 18 30 29.71 1006 10 16.09344 0 0
4:52 pm 16:52 Mostly Cloudy 45 7 19 -7 37 37 WSW 8 13 29.71 1006 10 16.09344 0 0
5:52 pm 17:52 Mostly Cloudy 43 6 23 -5 46 46 W 20 31 29.74 1007 10 16.09344 0 0
6:52 pm 18:52 Mostly Cloudy 43 6 25 -4 49 49 W 18 30 29.77 1008 10 16.09344 0 0
7:36 pm 19:36 Cloudy with Light Rain 39 4 27 -3 61 61 NW 30 48 29.83 1010 9 14.484096 0 0
7:38 pm 19:38 Cloudy with Light Wintry Mix 37 3 28 -2 70 70 NW 25 41 29.83 1010 8 12.874752 0 0
7:45 pm 19:45 Cloudy with Light Snow 37 3 30 -1 75 75 WNW 18 30 29.83 1010 7 11.265408 0.001 0.001
7:48 pm 19:48 Windy with Snow Likely 37 3 30 -1 75 75 WNW 20 31 29.83 1010 9 14.484096 0 0
7:52 pm 19:52 Cloudy 37 3 28 -2 70 70 WNW 17 28 29.83 1010 9 14.484096 0.001 0.001
7:59 pm 19:59 Windy with Snow Likely 37 3 28 -2 70 70 WNW 24 39 29.85 1011 10 16.09344 0.001 0.001
8:13 pm 20:13 Cloudy 36 2 28 -2 75 75 WNW 22 35 29.85 1011 9 14.484096 0.001 0.001
8:52 pm 20:52 Mostly Cloudy 36 2 19 -7 52 52 WNW 21 33 29.88 1012 10 16.09344 0.001 0.001
9:52 pm 21:52 Partly Cloudy 34 1 12 -11 41 41 WNW 21 33 29.94 1014 10 16.09344 0 0
10:52 pm 22:52 Mostly Clear 30 -1 7 -14 37 37 WNW 16 26 29.97 1015 10 16.09344 0 0
11:52 pm 23:52 Mostly Clear 28 -2 7 -14 40 40 WNW 13 20 30 1016 10 16.09344 0 0

Powered by AerisWeather